Weather Roundup
Issued by NWS

Home | Current Version | Previous Version | Text Only | Print | Product List | Glossary On
Versions: 1 2 3 4 5 6 7 8 9 10 11 12 13 14 15 16 17 18 19 20 21 22 23 24 25 26 27 28 29 30 31 32 33 34 35 36 37 38 39 40 41 42 43 44 45 46 47 48 49 50
551
NZUS93 KARX 152059
HRRWXR

CURRENT HOURLY OBSERVATIONS ACROSS
MUCH OF THE UPPER MISSISSIPPI VALLEY
NATIONAL WEATHER SERVICE LA CROSSE WI
300 PM CST SAT DEC 15 2018


...SOUTHEAST MINNESOTA...


CITY           SKY/WX    TMP DP  RH WIND       PRES   REMARKS
ROCHESTER      FAIR      35  27  72 S8        30.12R WCI  29
ROCHESTER/MAYO FAIR      42  23  47 S5        30.12S
WINONA         FAIR      37  28  70 S3        30.15R
AUSTIN         FAIR      37  27  65 S7        30.11F WCI  32
ALBERT LEA     FAIR      39  27  60 S9        30.09F WCI  33
DODGE CENTER   FAIR      34  27  75 S9        30.10F WCI  26
PRESTON        FAIR      38  27  65 S9        30.13R WCI  31
OWATONNA       FAIR      39  27  60 S12       30.09S WCI  32
FARIBAULT      NOT AVBL
$$

...ELSEWHERE IN MINNESOTA...


CITY           SKY/WX    TMP DP  RH WIND       PRES   REMARKS
MINNEAPOLIS    FAIR      42  24  49 S9        30.08F
INTNL FALLS    FAIR      46  24  42 S9G18     29.82F
DULUTH         FAIR      43  26  51 S13       30.00F
RED WING       FAIR      43  21  42 S3        30.11S
REDWOOD FALLS  SUNNY     41  29  62 S15       29.98F
MANKATO        FAIR      38  26  62 S10       30.07S WCI  31
WORTHINGTON    SUNNY     39  27  62 S22       30.00S WCI  29
FAIRMONT       SUNNY     36  27  69 S15       30.06F WCI  27
$$

...SOUTHWEST WISCONSIN...


CITY           SKY/WX    TMP DP  RH WIND       PRES   REMARKS
LA CROSSE      FAIR      41  26  55 SE6       30.16S
PRAIRIE DU CHI FAIR      46  26  47 CALM      30.16S
BOSCOBEL       FAIR      49  28  44 VRB3      30.17S
LONE ROCK      NOT AVBL
PLATTEVILLE    FAIR      47  31  52 E5        30.16S
FORT MC COY    FAIR      46  26  45 CALM      30.16S
MAUSTON-NEW LI FAIR      43  27  53 S3        30.16S
VIROQUA          N/A     45  28  51 SE5       30.14S
WIS DELLS      FAIR      42  26  53 E3        30.17R
$$

...ELSEWHERE IN WISCONSIN...


CITY           SKY/WX    TMP DP  RH WIND       PRES   REMARKS
MILWAUKEE      FAIR      43  32  65 N5        30.17S
MADISON        FAIR      47  28  47 CALM      30.17S
GREEN BAY      FAIR      42  32  67 NW3       30.20R
EAU CLAIRE     FAIR      41  23  48 S7        30.12F
BLACK RVR FLS  FAIR      48  21  34 S3        30.15S
MEDFORD        FAIR      38  25  58 SE8       30.13S WCI  32
WAUSAU         FAIR      41  23  48 SE7       30.15S
WIS RAPIDS     FAIR      44  25  47 SE5       30.18R
MARSHFIELD     FAIR      39  26  59 SE6       30.14S WCI  35
RICE LAKE      FAIR      40  26  56 SE8       30.11F WCI  35
$$

...NORTHEAST IOWA...


CITY           SKY/WX    TMP DP  RH WIND       PRES   REMARKS
WATERLOO       FAIR      48  27  44 CALM      30.14S
DUBUQUE        FAIR      48  25  40 CALM      30.15S
DECORAH        FAIR      41  30  65 S6        30.13S
MASON CITY     SUNNY     40  33  76 S7        30.12F
CHARLES CITY   FAIR      43  30  61 S6        30.14R
OELWEIN        NOT AVBL
$$

...ELSEWHERE IN IOWA...


CITY           SKY/WX    TMP DP  RH WIND       PRES   REMARKS
DES MOINES     SUNNY     51  21  30 SW5       30.14F
IOWA CITY      FAIR      52  27  38 MISG      30.16R
FORT DODGE     SUNNY     40  27  59 S9        30.11F WCI  34
MARSHALLTOWN   SUNNY     49  23  36 SW6       30.13S
CEDAR RAPIDS   FAIR      49  27  42 E3        30.13S
$$

...NORTHERN ILLINOIS...


CITY           SKY/WX    TMP DP  RH WIND       PRES   REMARKS
CHICAGO-OHARE  FAIR      43  32  65 NE13      30.13R
CHICAGO-MIDWAY FAIR      44  31  60 NE13      30.12R
MOLINE         FAIR      50  31  48 NE6       30.12S
ROCKFORD       FAIR      48  31  51 NE7       30.17R
PEORIA         FAIR      49  33  54 NE7       30.10R
$$

NOTE: "FAIR" INDICATES FEW OR NO CLOUDS BELOW 12,000 FEET WITH NO
SIGNIFICANT WEATHER AND/OR OBSTRUCTIONS TO VISIBILITY. WIND
SPEEDS ARE IN MILES-PER-HOUR.




USA.gov is the U.S. government's official web portal to all federal, state and local government web resources and services.